Wind_Speed
12 13 13 14 14 14 16 16 17 17 17 18 19 19 20 20 20 21 21 22 22 23 23 24 24 24 25 25 25 25 25 25 26 26 26 26 27 27 27 27 27 27 28
11 12 13 14 15 16 17 18 18 19 19 20 20 21 22 23 23 24 24 25 26 26 27 27 28 28 28 28 28 28 28 28 28 29 29 30 30 30 30 31 31 31 31
9 11 13 14 15 16 18 19 19 20 21 21 22 23 24 25 26 26 27 27 29 30 30 30 31 31 32 32 32 32 32 32 32 32 33 34 34 34 35 35 35 35 35
9 10 11 13 14 16 17 18 20 21 22 23 24 25 26 26 27 29 30 31 32 33 33 34 35 34 34 34 35 35 36 36 36 36 36 37 37 38 38 39 39 39 39
9 10 12 13 14 16 18 19 20 22 23 24 26 27 28 29 30 31 33 34 35 36 37 37 37 37 37 37 38 38 39 39 40 40 39 40 40 41 41 42 41 41 41
12 13 14 15 16 17 18 19 20 22 24 25 27 29 31 32 33 34 35 36 38 38 39 40 40 40 41 41 41 42 42 43 43 43 43 43 42 44 44 45 45 44 44
14 15 15 16 17 18 19 21 22 24 26 27 29 31 32 34 35 36 38 39 40 41 42 43 43 43 43 44 45 45 45 46 46 47 47 46 46 46 48 48 49 49 48
17 18 18 19 20 20 22 23 25 27 28 29 31 32 34 35 36 37 38 40 41 43 44 45 45 46 46 46 47 48 49 49 50 50 50 50 50 51 52 52 52 52 52
18 19 20 21 22 23 25 26 28 29 31 32 33 34 35 36 36 38 39 40 42 43 44 45 45 46 46 48 49 49 50 51 52 52 52 53 53 54 55 55 55 55 55
20 21 22 23 24 25 27 28 30 31 33 33 35 36 37 38 39 41 42 43 44 45 45 45 46 47 48 49 50 50 50 51 52 52 53 54 55 56 57 58 59 60 60
23 24 24 25 27 27 29 30 31 32 33 34 36 37 39 40 42 42 42 43 44 46 46 47 48 49 49 50 50 51 51 52 52 53 54 56 58 59 60 62 63 64 64
24 26 26 27 29 30 30 32 33 34 35 35 37 38 40 41 42 42 42 43 44 45 46 48 49 50 51 52 53 54 55 56 57 57 58 59 60 62 63 65 66 67 68
27 28 29 29 30 31 33 34 35 36 36 37 38 39 41 42 43 44 44 45 47 48 49 50 51 52 53 55 56 57 58 60 60 61 61 62 63 64 66 67 68 68 68
29 30 30 31 32 33 35 36 37 37 39 40 41 42 44 45 46 47 48 49 50 51 52 52 53 55 56 57 58 60 61 62 62 63 64 64 65 65 66 66 66 66 66
30 31 32 33 34 35 37 38 39 40 42 43 44 46 47 48 49 50 51 52 52 53 54 55 56 57 58 59 60 61 62 62 63 63 63 63 63 63 63 63 63 63 63
31 32 34 35 36 37 39 40 42 43 45 46 47 48 49 50 51 52 53 54 54 54 55 55 56 57 58 58 58 58 59 59 59 59 59 59 59 58 58 59 60 60 60
32 34 35 37 38 40 41 43 44 46 47 48 49 50 51 52 52 53 54 54 54 54 55 55 56 56 55 55 56 55 55 55 55 55 55 55 55 55 55 54 54 54 54
34 35 37 38 40 42 43 45 47 48 49 51 51 52 53 54 54 54 54 53 54 54 55 55 54 54 53 53 53 52 52 51 51 50 49 48 48 47 47 47 47 47 47
36 38 40 41 43 44 46 47 48 50 51 52 52 52 53 53 53 53 52 52 52 52 52 52 51 50 49 49 48 47 46 45 44 43 43 42 41 41 40 40 40 40 40
38 40 41 43 44 45 47 48 49 50 50 51 51 52 52 51 51 50 50 49 49 49 48 47 45 44 43 42 42 40 39 38 38 37 37 36 36 36 35 35 35 35 35
40 41 43 44 45 47 48 48 49 50 50 50 50 50 49 49 48 47 47 46 46 44 43 41 40 39 38 37 36 35 34 33 33 32 32 32 32 32 31 31 31 31 31
42 43 44 45 46 47 47 47 48 48 48 48 47 47 46 46 45 44 43 42 40 39 37 36 35 34 33 32 31 30 29 29 29 29 29 29 28 28 28 28 28 28 28
43 43 44 45 45 45 45 45 45 45 45 45 45 44 43 42 41 39 38 37 36 34 32 31 30 30 29 28 27 26 26 26 26 26 26 26 26 26 25 25 25 24 24
42 42 42 42 42 42 42 42 42 42 42 41 40 39 38 37 36 35 34 33 31 30 29 28 27 26 25 25 24 24 24 24 24 24 24 23 23 23 23 22 22 22 22
40 40 40 40 40 40 40 39 39 38 38 37 37 36 35 34 33 31 30 29 28 27 26 26 25 24 23 23 23 23 23 23 22 22 22 22 22 22 21 21 21 21 21
38 39 38 38 38 37 37 37 36 36 35 34 33 33 32 30 29 28 27 27 26 25 24 24 24 23 22 22 22 22 22 22 22 22 22 21 21 21 21 21 21 21 20
Wind_Direction
204 208 215 220 223 228 232 236 239 241 245 249 250 251 253 256 259 261 263 265 267 268 269 270 271 272 272 273 273 273 273 273 274 274 274 274 275 275 274 274 274 273 273
214 217 223 229 232 235 238 244 249 250 251 253 255 257 260 261 262 264 265 267 269 270 271 272 273 273 273 273 272 272 272 272 273 273 273 273 273 274 274 273 273 273 273
223 224 230 234 237 241 245 249 253 256 257 259 261 263 265 266 266 267 268 270 271 272 272 272 274 274 274 273 273 273 273 273 273 273 273 273 272 273 273 272 273 272 272
237 240 241 241 244 247 251 253 255 259 261 264 265 266 267 268 270 270 270 271 272 272 273 273 273 274 274 274 274 274 274 274 274 274 273 273 272 272 272 272 272 273 272
247 248 250 254 255 256 256 259 260 260 265 268 267 268 269 271 273 273 272 272 272 273 274 274 274 273 273 273 274 275 275 274 275 275 274 273 273 273 273 273 273 273 273
258 258 258 258 258 260 261 263 264 265 268 271 272 272 273 274 275 275 274 273 273 274 274 275 275 275 274 274 274 275 275 275 275 275 274 274 274 275 275 275 275 274 273
262 265 267 268 267 267 268 269 270 272 272 274 275 275 274 275 276 276 275 275 274 273 274 275 276 276 276 274 274 275 275 275 276 276 275 275 275 275 275 275 275 275 275
268 270 271 272 272 276 276 275 276 276 276 276 277 276 275 277 277 276 277 277 277 276 275 275 276 276 276 276 276 276 275 275 275 276 275 275 276 276 275 275 275 275 274
272 273 273 273 274 276 277 277 279 279 279 279 278 277 277 278 279 279 279 280 279 279 279 278 277 277 277 277 276 276 276 276 276 276 276 277 277 277 277 276 276 275 275
272 274 274 275 276 277 278 279 279 280 279 278 279 279 279 279 279 279 279 279 279 279 279 278 278 278 277 277 277 277 277 277 277 278 278 277 277 277 278 277 276 276 275
274 275 276 279 279 280 281 282 282 282 281 281 282 282 281 281 281 281 281 280 280 280 280 280 279 279 278 278 278 278 278 278 278 278 278 277 278 278 277 277 277 277 277
276 278 279 281 282 283 284 285 285 285 285 284 284 284 284 284 283 283 283 282 281 281 280 280 280 279 279 279 279 279 279 278 279 279 278 278 278 278 278 278 278 278 277
278 280 281 282 284 285 286 287 288 287 288 288 288 287 286 286 285 284 283 282 282 281 281 280 280 280 280 280 280 280 280 280 280 279 279 279 279 278 278 278 278 278 278
281 282 284 286 287 288 288 290 290 290 290 290 289 289 288 288 287 286 285 285 284 283 283 282 282 282 282 282 282 282 282 281 281 281 280 280 280 280 280 279 278 278 278
282 284 286 288 289 289 290 291 290 290 290 290 290 290 290 289 288 287 287 286 285 285 284 284 284 284 284 284 283 283 283 282 282 281 281 281 281 281 280 280 279 279 279
284 286 287 289 289 290 291 291 291 291 291 291 290 290 290 289 288 288 287 287 286 286 286 286 286 286 285 285 285 285 285 285 285 284 284 284 283 282 282 282 282 281 280
285 286 288 289 290 291 291 292 292 292 292 291 291 290 290 290 289 289 288 288 287 287 287 287 287 286 286 286 286 287 287 286 286 286 285 285 285 284 283 283 283 283 282
287 288 289 290 291 292 292 292 292 292 292 292 292 292 291 291 291 291 290 290 289 289 289 289 288 288 288 288 288 288 288 288 287 288 288 287 287 286 286 286 286 285 285
288 290 291 292 293 293 294 294 294 294 294 294 293 293 293 293 293 292 292 292 292 292 292 291 291 290 290 291 291 291 290 290 289 289 289 289 288 288 289 289 288 288 289
291 292 293 294 294 295 295 295 295 295 295 295 295 295 295 295 295 294 294 294 294 295 295 294 294 293 293 293 294 293 293 292 292 292 291 291 291 292 291 290 291 292 292
293 294 295 295 295 295 296 296 297 297 297 297 297 297 297 297 296 296 296 297 297 298 297 296 295 295 295 295 295 295 295 295 293 293 294 294 295 295 294 293 293 294 294
295 296 296 297 297 297 297 298 298 298 299 299 299 299 299 299 298 298 298 299 299 299 298 297 297 297 296 296 296 297 298 298 297 297 297 297 298 298 297 297 297 297 297
296 297 297 298 298 299 299 300 301 301 301 301 301 302 302 302 301 301 301 301 301 301 300 300 300 299 299 297 298 298 300 300 300 300 299 299 300 301 300 301 302 302 302
298 298 299 299 299 300 301 302 303 303 304 304 304 304 304 304 304 303 303 302 302 302 302 302 302 301 301 300 300 300 302 303 304 304 303 302 302 302 302 303 304 305 305
299 299 299 300 301 301 303 303 304 305 306 307 307 307 306 306 306 306 306 306 305 304 304 304 304 303 303 302 302 303 304 306 308 308 308 307 307 306 305 304 304 305 306
299 300 301 302 303 303 304 305 305 306 307 308 308 308 309 309 309 309 309 308 307 307 306 306 306 305 305 304 304 305 306 308 310 312 313 311 310 308 307 306 306 305 305
Height
5830 5832 5834 5837 5839 5841 5844 5845 5847 5849 5850 5851 5853 5854 5855 5855 5856 5857 5857 5858 5858 5858 5858 5858 5858 5858 5857 5857 5857 5856 5856 5856 5855 5854 5853 5852 5851 5850 5849 5849 5848 5847 5847
5829 5831 5833 5834 5836 5839 5841 5842 5844 5845 5846 5848 5849 5850 5850 5851 5851 5852 5852 5852 5852 5852 5852 5852 5851 5851 5850 5850 5849 5849 5849 5848 5848 5847 5846 5845 5844 5842 5842 5841 5840 5839 5839
5827 5829 5831 5832 5834 5836 5837 5839 5840 5841 5842 5843 5844 5845 5845 5845 5845 5846 5846 5846 5845 5845 5844 5844 5843 5843 5842 5842 5841 5841 5840 5840 5839 5839 5837 5836 5835 5834 5833 5832 5831 5830 5830
5826 5828 5829 5830 5831 5832 5834 5835 5836 5837 5838 5838 5839 5839 5839 5839 5839 5839 5838 5838 5837 5837 5836 5835 5835 5834 5833 5832 5832 5832 5831 5830 5829 5829 5828 5827 5825 5824 5823 5822 5821 5820 5820
5825 5825 5826 5827 5828 5829 5830 5831 5831 5832 5832 5833 5833 5833 5832 5832 5831 5831 5830 5830 5829 5828 5827 5826 5825 5824 5823 5822 5822 5821 5820 5819 5818 5817 5817 5816 5815 5813 5811 5811 5810 5810 5809
5822 5823 5823 5824 5824 5825 5825 5826 5826 5827 5827 5827 5826 5826 5825 5824 5823 5823 5822 5821 5819 5818 5817 5816 5815 5814 5813 5812 5810 5809 5808 5807 5806 5805 5804 5804 5803 5801 5799 5799 5798 5797 5797
5819 5819 5820 5820 5820 5820 5821 5821 5821 5821 5821 5820 5819 5818 5817 5816 5815 5813 5811 5810 5809 5808 5806 5805 5803 5802 5801 5800 5799 5797 5796 5794 5793 5792 5791 5791 5790 5788 5787 5786 5784 5783 5783
5815 5815 5815 5816 5815 5815 5815 5815 5815 5814 5813 5812 5811 5809 5808 5806 5804 5803 5802 5800 5798 5797 5795 5793 5792 5791 5789 5787 5786 5785 5783 5781 5780 5778 5777 5776 5775 5773 5772 5771 5769 5768 5768
5810 5810 5810 5810 5810 5810 5809 5809 5808 5807 5805 5804 5802 5801 5799 5797 5795 5793 5791 5789 5787 5785 5783 5781 5780 5778 5776 5775 5773 5771 5769 5767 5765 5764 5763 5761 5759 5757 5755 5754 5753 5752 5752
5805 5805 5804 5804 5804 5803 5802 5801 5800 5798 5796 5795 5793 5791 5789 5787 5785 5782 5780 5777 5775 5773 5771 5769 5767 5765 5763 5761 5759 5757 5756 5754 5751 5749 5747 5745 5743 5741 5739 5737 5735 5734 5733
5800 5799 5798 5797 5796 5795 5794 5793 5791 5789 5787 5785 5783 5781 5778 5776 5773 5771 5768 5765 5763 5761 5758 5756 5754 5751 5749 5747 5744 5742 5740 5738 5736 5734 5732 5729 5727 5724 5721 5719 5717 5715 5714
5793 5792 5791 5790 5789 5787 5785 5784 5782 5779 5777 5775 5772 5770 5767 5764 5762 5759 5756 5753 5750 5748 5745 5742 5739 5737 5734 5731 5729 5727 5724 5722 5720 5718 5715 5712 5709 5707 5703 5700 5697 5695 5693
5785 5784 5783 5781 5780 5778 5776 5774 5771 5769 5766 5764 5761 5758 5755 5752 5749 5746 5743 5740 5737 5734 5731 5728 5725 5722 5719 5715 5712 5710 5707 5704 5702 5699 5696 5693 5690 5687 5684 5681 5678 5675 5673
5777 5776 5774 5772 5770 5768 5766 5763 5761 5758 5755 5752 5749 5746 5743 5740 5736 5733 5729 5726 5722 5719 5715 5712 5709 5705 5702 5698 5695 5692 5689 5685 5682 5680 5676 5673 5670 5667 5663 5660 5657 5654 5652
5769 5767 5765 5763 5760 5758 5756 5753 5750 5747 5744 5741 5737 5733 5730 5726 5722 5718 5714 5710 5706 5703 5699 5695 5692 5688 5684 5680 5677 5673 5669 5666 5662 5659 5656 5653 5650 5646 5643 5640 5637 5634 5631
5760 5758 5756 5754 5751 5748 5745 5742 5738 5735 5731 5727 5723 5719 5715 5711 5707 5703 5698 5694 5690 5686 5682 5678 5674 5670 5666 5662 5659 5654 5650 5646 5643 5640 5636 5633 5630 5627 5624 5620 5616 5613 5611
5751 5749 5746 5744 5741 5737 5734 5731 5727 5722 5718 5714 5709 5704 5700 5696 5691 5686 5682 5678 5674 5670 5666 5661 5657 5653 5649 5645 5641 5637 5633 5629 5625 5621 5618 5614 5611 5608 5605 5601 5598 5594 5591
5741 5739 5736 5733 5730 5726 5722 5718 5714 5709 5704 5699 5694 5689 5685 5680 5675 5670 5665 5661 5657 5652 5648 5644 5640 5636 5632 5628 5624 5620 5616 5612 5608 5605 5601 5598 5594 5591 5588 5585 5581 5578 5575
5731 5728 5725 5721 5717 5713 5709 5705 5700 5695 5690 5685 5679 5674 5669 5664 5659 5654 5649 5645 5641 5636 5631 5627 5623 5619 5615 5612 5608 5604 5601 5597 5594 5590 5587 5584 5580 5577 5574 5571 5567 5564 5560
5720 5717 5713 5709 5705 5701 5696 5691 5686 5681 5676 5670 5665 5659 5654 5649 5644 5639 5634 5630 5625 5621 5616 5612 5608 5604 5601 5597 5594 5590 5587 5584 5581 5578 5574 5571 5568 5565 5562 5559 5555 5552 5549
5709 5705 5701 5697 5692 5688 5683 5678 5672 5667 5662 5656 5651 5645 5640 5635 5629 5624 5620 5615 5611 5607 5603 5599 5595 5592 5588 5585 5582 5579 5576 5573 5569 5566 5563 5560 5557 5554 5551 5548 5545 5541 5538
5698 5693 5689 5684 5679 5675 5670 5664 5659 5654 5648 5643 5638 5632 5627 5622 5616 5612 5607 5603 5599 5595 5591 5588 5584 5581 5578 5575 5572 5569 5566 5563 5560 5557 5554 5551 5548 5545 5542 5539 5535 5532 5529
5686 5681 5676 5672 5667 5662 5657 5652 5647 5641 5636 5630 5625 5620 5615 5610 5605 5600 5596 5592 5588 5584 5581 5578 5575 5572 5569 5566 5563 5561 5558 5555 5552 5549 5546 5543 5540 5537 5534 5531 5528 5524 5521
5674 5669 5665 5660 5655 5650 5645 5640 5635 5630 5625 5619 5614 5609 5604 5599 5595 5590 5586 5582 5579 5575 5572 5569 5566 5564 5561 5558 5556 5553 5550 5548 5545 5542 5538 5536 5533 5530 5527 5524 5521 5518 5515
5663 5658 5654 5649 5644 5639 5634 5629 5625 5619 5614 5609 5604 5600 5595 5590 5586 5582 5578 5574 5571 5568 5565 5562 5559 5557 5554 5551 5549 5546 5544 5541 5538 5535 5532 5529 5526 5523 5521 5518 5515 5512 5509
5652 5647 5643 5638 5634 5629 5624 5619 5615 5610 5605 5600 5596 5591 5587 5582 5578 5575 5571 5567 5564 5561 5558 5555 5553 5550 5548 5545 5543 5540 5537 5535 5532 5529 5526 5523 5521 5518 5515 5512 5509 5506 5503